Showing default

COSMOS 2392, 27470

Orbit data source: Space-Track

COSMOS 2392, 27470 is a payload satellite owned by Lavochkin (CIS) in LEO that was launched on Thu, 25 Jul 2002 UTC via a PROTON-K/17S40 launch vehicle from the Tyuratam Missile And Space Complex (TTMTR). Payload-class satellites include a variety of spacecraft equipped with specific instruments for various scientific and technological missions. These include communications satellites like Starlink; space stations such as the ISS; scientific satellites like the Hubble; Earth observation satellites from companies like Planet Labs, Umbra, and HawkEye 360; GPS; miniature CubeSats for education and research; and military/defense satellites.

Loading next visibility...
Identifier
27470, 2002-037A
Orbit
LEO
Country
Flag of CISCIS
Related business
Manufacturer
Lavochkin
Mission
Defense Imaging
Bus & Motor
ARKON 11F664, 17D62
Mass
~7,500 kg wet, ~6,500 kg dry
Launch date (UTC)
2002-07-25 (24 years ago)
Launch vehicle
PROTON-K/17S40
Launch site
Tyuratam Missile And Space Complex (TTMTR)
Object type
Payload
Rocket body
Debris
Shape & HBR
Cyl + 2 Pan, 2.9 m
Radar Cross Section
9.606 m², Large (>1 m²)

Expand to show TLE details & history
Last TLE update: 2 days ago

TLE from 2 days ago
0 COSMOS 2392
1 27470U 02037A   26171.41472101 -.00000230  00000-0 -10784-2 0  9998
2 27470  63.4009  43.0751 0621242 359.3059 172.3722 12.06809828 53685
Epoch: 2026-06-20T09:57Z
TLE epoch observation values (Epoch: 2026-06-20T09:57:11.895Z)
Latitude
6.60304°
Longitude
161.8378°
Altitude
2,146.446 km
Speed
6.626 km/s
True Right ascension
14h 39m 04s
True Declination
6° 34' 13"
Sunlit
Object was in daylight at epoch
Visualization orbit readout
Latitude
Unknown
Longitude
Unknown
Altitude
Unknown
Speed
Unknown
Apparent Right ascension
Unknown
Apparent Declination
Unknown
Sunlit
N/A
Visualization observer readout
Local Sidereal Time
03:30:12
Azimuth
Unknown
Elevation
Unknown
Doppler factor
Unknown
Orbital elements
Apogee altitude
2,148.126 km
Perigee altitude
1,150.715 km
Semi-major axis
8,027.557 km
Eccentricity
0.06212
Inclination
63.4009°
RAAN
43.0751°
Arg. of periapsis
359.3059°
True anomaly
173.24941°
Mean anomaly
172.3722°
Eccentric anomaly
172.81725°
Mean motion
3.01764 °/min
Orbital period
119.3 mins
BSTAR
-0.0010784
Loading maneuver chart data...
Computing Atmospheric mass density...

Documentation

Showing up to 5 results
|